Weather in Yulovo

Russia / Ulyanovsk Oblast     53°57′48″N   46°28′40″E
temp.,
°C
wind,
m/s
gust,
m/s
humid.,
%
clouds,
%
prec.,
mm/h
press.,
hPa
HPBL,
m
18 may, tue
tue1801:00+16se22689 0.0 101622
04:00+15ese25735 0.0 101684
07:00+18ese24605 0.0 1016102
10:00+26ese36335 0.0 1015541
13:00+30ese47211 0.0 10142186
16:00+30se47240 0.0 10143076
19:00+25ese24500 0.0 101489
22:00+20ese412524 0.0 1014233
19 may, wed
wed1901:00+17ese311575 0.0 1014184
04:00+17ese413565 0.0 1014222
07:00+18ese413701 0.0 1014383
10:00+24ese59491 0.0 1013591
13:00+28ese69380 0.0 10131959
16:00+28ese69380 0.0 10122510
19:00+24e611510 0.0 1012882
22:00+20ese515580 0.0 1013596
20 may, thu
thu2001:00+20ese515551 0.0 1012585
04:00+18se515650 0.0 1013665
07:00+18se614660 0.0 1012652
10:00+22sse695710 0.0 10121232
13:00+24sse7104846 0.0 10111908
16:00+21sse496779 1.3 1011635
19:00+18sw258191 2.8 1010153
22:00+14wsw239694 10.4 101196
21 may, fri
fri2101:00+13sse249681 0.1 101189
04:00+12ssw2697100 0.1 1012131
07:00+13ssw39935 0.0 1012370
10:00+17sw5773100 0.1 10131078
13:00+18sw5959100 0.2 10141698
16:00+20wsw485261 0.2 10151883
19:00+18wsw596782 0.0 10171277
22:00+13sw2788100 0.0 1019157
22 may, sat
sat2201:00+12sw229471 0.0 102026
04:00+13sse1186100 0.0 102011
07:00+15ese2581100 0.0 1020210
10:00+20sse586091 0.3 1019856
13:00+24sse7114590 0.0 10171480
16:00+25s5125049 0.0 10161793
19:00+23s4105894 0.0 1016788
22:00+18s31175100 0.0 1016219